Date String (YYYY-MM-DD hh:mm:ss) UTC,Instrument flags,absolute air pressure of the measurement (hPa),sample flow rate (lpm),inlet stack bypass flow (lpm),air temperature of the measurement (°C),ambient temperature measured by the external sensor (°C),aerosol sample conditioner tube jacket temperature (°C),OPC LED temperature (°C),internal box temperature (°C),relative humidity of the measurement (%),span deviation,mass concentration of particles derived from Lorenz-Mie calculation of OPC scattering (μg/m³),mass concentration of particles derived from Lorenz-Mie calculation of OPC scattering (μg/m³),mass concentration of particles derived from Lorenz-Mie calculation of OPC scattering (μg/m³)
DateTimeUTC,F1_M11,P_M11,Q1_M11,Q2_M11,T1_M11,T2_M11,T3_M11,T4_M11,T5_M11,U1_M11,ZSPAN_M11,X2_M11,X0_M11,X1_M11
2023-10-16 07:00:00,SystemResetWarning,0839.9,5.01,000.00,028.8,027.2,000.0,037.3,030.4,13.2,0000.0,0003.51,0007.76,0003.31
2023-10-16 07:01:00,SystemResetWarning,0839.9,5.01,000.00,028.8,027.2,000.0,037.3,030.4,13.2,0000.0,0003.51,0007.27,0003.30
2023-10-16 07:02:00,SystemResetWarning,0839.9,5.00,000.00,028.8,027.2,000.0,037.3,030.4,13.2,0000.0,0003.53,0007.18,0003.30
2023-10-16 07:03:00,SystemResetWarning,0839.9,5.01,000.00,028.8,027.2,000.0,037.3,030.4,13.3,0000.0,0003.53,0007.29,0003.28
2023-10-16 07:04:00,SystemResetWarning,0839.9,4.99,000.00,028.8,027.2,000.0,037.3,030.4,13.3,0000.0,0003.52,0007.71,0003.27
2023-10-16 07:05:00,SystemResetWarning,0839.9,4.99,000.00,028.8,027.2,000.0,037.2,030.4,13.3,0000.0,0003.47,0007.66,0003.24
2023-10-16 07:06:00,SystemResetWarning,0839.9,5.01,000.00,028.8,027.2,000.0,037.2,030.3,13.3,0000.0,0003.49,0007.85,0003.23
2023-10-16 07:07:00,SystemResetWarning,0839.9,5.01,000.00,028.8,027.2,000.0,037.3,030.4,13.3,0000.0,0003.49,0007.88,0003.22
2023-10-16 07:08:00,SystemResetWarning,0839.9,5.01,000.00,028.8,027.2,000.0,037.2,030.4,13.3,0000.0,0003.50,0007.45,0003.21
2023-10-16 07:09:00,SystemResetWarning,0839.9,5.00,000.00,028.7,027.2,000.0,037.2,030.4,13.3,0000.0,0003.52,0007.15,0003.21
2023-10-16 07:10:00,SystemResetWarning,0839.9,4.98,000.00,028.8,027.2,000.0,037.2,030.4,13.3,0000.0,0003.53,0007.12,0003.20
2023-10-16 07:11:00,SystemResetWarning,0839.9,5.00,000.00,028.7,027.2,000.0,037.2,030.4,13.3,0000.0,0003.54,0007.07,0003.19
2023-10-16 07:12:00,SystemResetWarning,0839.9,5.01,000.00,028.7,027.2,000.0,037.2,030.4,13.3,0000.0,0003.53,0007.01,0003.17
2023-10-16 07:13:00,SystemResetWarning,0839.9,5.01,000.00,028.7,027.2,000.0,037.2,030.4,13.3,0000.0,0003.55,0007.19,0003.16
2023-10-16 07:14:00,SystemResetWarning,0839.9,4.99,000.00,028.7,027.2,000.0,037.2,030.3,13.3,0000.0,0003.57,0007.86,0003.16
2023-10-16 07:15:00,SystemResetWarning,0839.9,5.00,000.00,028.7,027.2,000.0,037.2,030.3,13.3,0000.0,0003.57,0008.07,0003.17
2023-10-16 07:16:00,SystemResetWarning,0839.8,5.02,000.00,028.7,027.2,000.0,037.2,030.3,13.3,0000.0,0003.59,0008.24,0003.16
2023-10-16 07:17:00,SystemResetWarning,0839.8,4.99,000.00,028.7,027.2,000.0,037.2,030.3,13.3,0000.0,0003.53,0008.02,0003.16
2023-10-16 07:18:00,SystemResetWarning,0839.8,4.99,000.00,028.7,027.2,000.0,037.2,030.3,13.3,0000.0,0003.51,0008.55,0003.15
2023-10-16 07:19:00,SystemResetWarning,0839.8,5.01,000.00,028.7,027.2,000.0,037.2,030.3,13.3,0000.0,0003.51,0008.66,0003.16
2023-10-16 07:20:00,SystemResetWarning,0839.7,5.01,000.00,028.7,027.2,000.0,037.2,030.3,13.3,0000.0,0003.51,0008.63,0003.16
2023-10-16 07:21:00,SystemResetWarning,0839.7,5.00,000.00,028.7,027.2,000.0,037.2,030.3,13.3,0000.0,0003.54,0008.68,0003.16
2023-10-16 07:22:00,SystemResetWarning,0839.8,4.99,000.00,028.7,027.2,000.0,037.2,030.4,13.3,0000.0,0003.54,0008.77,0003.17
2023-10-16 07:23:00,SystemResetWarning,0839.8,4.99,000.00,028.7,027.2,000.0,037.2,030.3,13.3,0000.0,0003.54,0008.77,0003.18
2023-10-16 07:24:00,SystemResetWarning,0839.7,5.01,000.00,028.7,027.2,000.0,037.2,030.3,13.3,0000.0,0003.53,0008.80,0003.19
2023-10-16 07:25:00,SystemResetWarning,0839.7,5.01,000.00,028.7,027.2,000.0,037.2,030.3,13.3,0000.0,0003.56,0008.52,0003.21
2023-10-16 07:26:00,SystemResetWarning,0839.7,5.01,000.00,028.7,027.2,000.0,037.2,030.3,13.3,0000.0,0003.60,0008.01,0003.21
2023-10-16 07:27:00,SystemResetWarning,0839.7,5.00,000.00,028.7,027.2,000.0,037.2,030.3,13.3,0000.0,0003.62,0007.81,0003.21
2023-10-16 07:28:00,SystemResetWarning,0839.7,4.98,000.00,028.7,027.2,000.0,037.2,030.3,13.3,0000.0,0003.63,0007.83,0003.22
2023-10-16 07:29:00,SystemResetWarning,0839.7,5.01,000.00,028.7,027.2,000.0,037.2,030.3,13.3,0000.0,0003.65,0007.15,0003.22
2023-10-16 07:30:00,SystemResetWarning,0839.7,5.01,000.00,028.7,027.2,000.0,037.2,030.3,13.3,0000.0,0003.63,0006.96,0003.22
2023-10-16 07:31:00,SystemResetWarning,0839.7,5.01,000.00,028.7,027.1,000.0,037.2,030.3,13.3,0000.0,0003.61,0007.16,0003.21
2023-10-16 07:32:00,SystemResetWarning,0839.7,5.01,000.00,028.7,027.1,000.0,037.2,030.3,13.3,0000.0,0003.59,0007.22,0003.21
2023-10-16 07:33:00,SystemResetWarning,0839.6,5.00,000.00,028.7,027.1,000.0,037.2,030.3,13.3,0000.0,0003.60,0007.06,0003.22
2023-10-16 07:34:00,SystemResetWarning,0839.7,5.00,000.00,028.7,027.1,000.0,037.1,030.3,13.3,0000.0,0003.60,0007.57,0003.22
2023-10-16 07:35:00,SystemResetWarning,0839.7,4.99,000.00,028.7,027.1,000.0,037.2,030.3,13.3,0000.0,0003.56,0008.23,0003.22
2023-10-16 07:36:00,SystemResetWarning,0839.7,5.00,000.00,028.7,027.1,000.0,037.1,030.3,13.3,0000.0,0003.49,0007.83,0003.20
2023-10-16 07:37:00,SystemResetWarning,0839.7,5.01,000.00,028.7,027.1,000.0,037.1,030.3,13.3,0000.0,0003.46,0008.24,0003.20
2023-10-16 07:38:00,SystemResetWarning,0839.7,5.01,000.00,028.7,027.1,000.0,037.1,030.3,13.3,0000.0,0003.43,0008.40,0003.20
2023-10-16 07:39:00,SystemResetWarning,0839.7,4.99,000.00,028.6,027.1,000.0,037.1,030.2,13.3,0000.0,0003.41,0008.30,0003.19
2023-10-16 07:40:00,SystemResetWarning,0839.7,4.99,000.00,028.6,027.1,000.0,037.1,030.2,13.3,0000.0,0003.40,0008.23,0003.19
2023-10-16 07:41:00,SystemResetWarning,0839.7,5.01,000.00,028.6,027.1,000.0,037.1,030.2,13.3,0000.0,0003.40,0008.30,0003.19
2023-10-16 07:42:00,SystemResetWarning,0839.7,5.01,000.00,028.6,027.1,000.0,037.1,030.2,13.3,0000.0,0003.40,0008.10,0003.20
2023-10-16 07:43:00,SystemResetWarning,0839.7,5.00,000.00,028.6,027.1,000.0,037.1,030.2,13.3,0000.0,0003.41,0008.21,0003.21
2023-10-16 07:44:00,SystemResetWarning,0839.7,4.99,000.00,028.6,027.1,000.0,037.1,030.2,13.3,0000.0,0003.41,0008.25,0003.21
2023-10-16 07:45:00,SystemResetWarning,0839.7,5.00,000.00,028.6,027.1,000.0,037.1,030.2,13.4,0000.0,0003.43,0008.07,0003.20
2023-10-16 07:46:00,SystemResetWarning,0839.6,5.01,000.00,028.6,027.1,000.0,037.1,030.2,13.4,0000.0,0003.46,0007.16,0003.19
2023-10-16 07:47:00,SystemResetWarning,0839.7,5.00,000.00,028.6,027.1,000.0,037.1,030.2,13.3,0000.0,0003.48,0006.96,0003.20
2023-10-16 07:48:00,SystemResetWarning,0839.7,5.00,000.00,028.6,027.0,000.0,037.1,030.2,13.4,0000.0,0003.48,0006.52,0003.21
2023-10-16 07:49:00,SystemResetWarning,0839.7,5.00,000.00,028.6,027.0,000.0,037.1,030.2,13.4,0000.0,0003.47,0005.45,0003.21
2023-10-16 07:50:00,SystemResetWarning,0839.7,5.00,000.00,028.6,027.0,000.0,037.1,030.2,13.4,0000.0,0003.50,0005.50,0003.22
2023-10-16 07:51:00,SystemResetWarning,0839.7,4.98,000.00,028.6,027.0,000.0,037.1,030.2,13.4,0000.0,0003.53,0005.66,0003.23
2023-10-16 07:52:00,SystemResetWarning,0839.7,4.99,000.00,028.6,027.0,000.0,037.1,030.2,13.4,0000.0,0003.51,0005.48,0003.22
2023-10-16 07:53:00,SystemResetWarning,0839.7,5.01,000.00,028.6,027.0,000.0,037.0,030.2,13.4,0000.0,0003.50,0005.40,0003.21
2023-10-16 07:54:00,SystemResetWarning,0839.7,5.01,000.00,028.6,027.0,000.0,037.0,030.1,13.4,0000.0,0003.47,0004.95,0003.19
2023-10-16 07:55:00,SystemResetWarning,0839.7,5.01,000.00,028.6,027.0,000.0,037.0,030.2,13.4,0000.0,0003.46,0004.75,0003.18
2023-10-16 07:56:00,SystemResetWarning,0839.7,5.00,000.00,028.6,027.0,000.0,037.0,030.2,13.4,0000.0,0003.43,0004.63,0003.18
2023-10-16 07:57:00,SystemResetWarning,0839.7,5.00,000.00,028.6,027.0,000.0,037.0,030.2,13.4,0000.0,0003.41,0004.60,0003.19
2023-10-16 07:58:00,SystemResetWarning,0839.7,4.98,000.00,028.6,027.0,000.0,037.0,030.2,13.4,0000.0,0003.40,0005.37,0003.18
2023-10-16 07:59:00,SystemResetWarning,0839.7,5.00,000.00,028.6,027.0,000.0,037.0,030.2,13.4,0000.0,0003.41,0005.47,0003.18
